User: anonymous   Login
Location: Unspecified
(0.0000°N, 0.0000°E)
Time: 00:06:20
(UTC+00:00)
Language:

STARLINK-31123 - Orbit

View from above orbital plane
View from above orbital plane
View from above satellite
View from above satellite

Ground track
Ground track

The orbit is defined by the following mean orbital elements,

1 58775U          26145.37640155 +.00000000 +00000-0 +87177-4 0 00008
2 58775  53.1619  17.3086 0001295  91.0257 269.0892 15.30187701    04
Epoch (UTC): 25 May 2026 09:02:01
Eccentricity: 0.0001295
inclination: 53.1619°
perigee height: 474 km
apogee height: 476 km
right ascension of ascending node: 17.3086°
argument of perigee: 91.0257°
revolutions per day: 15.30187701
mean anomaly at epoch: 269.0892°

The dashed part of the orbit path shows where the satellite is in the earth's shadow,  

DLR